Vrsac, Serbia

12:09 PM CEST on April 26, 2017 (GMT +0200)
Vrsac

Weather History for LYVR - March, 2013

Change the Weather History Date:

Thursday, March 28, 2013

  Actual Average (LRTR) Record (LRTR)
Temperature  
Mean Temperature 40 °F -  
Max Temperature 46 °F 56 °F 69 °F (2006)
Min Temperature 33 °F 34 °F 21 °F (1998)
Degree Days  
Heating Degree Days 26    
Moisture  
Dew Point 29 °F    
Average Humidity 70    
Maximum Humidity 75    
Minimum Humidity 56    
Precipitation  
Precipitation 0.00 in - - ()
Sea Level Pressure  
Sea Level Pressure 30.03 in    
Wind  
Wind Speed 15 mph ()    
Max Wind Speed 38 mph    
Max Gust Speed 51 mph    
Visibility 6.6 miles    
Events      
Averages and records for this station are not official NWS values.
T = Trace of Precipitation, MM = Missing Value Source: Averaged Metar Reports

Daily Weather History Graph

Daily Weather History Graph

Search for Another Location

Airport or City:

Trip Planner

Search our weather history database for the weather conditions in past years. The results will help you decide how hot, cold, wet, or windy it might be!

Date:

Astronomy

Mar. 28, 2013 Rise Set
Actual Time 5:22 AM CET 5:57 PM CET
Civil Twilight 4:53 AM CET 6:27 PM CET
Nautical Twilight 4:18 AM CET 7:02 PM CET
Astronomical Twilight 3:42 AM CET 7:38 PM CET
Moon 7:34 PM CET (3/28) 5:34 AM CET (3/28)
Length of Visible Light 13h 33m
Length of Day
12h 34m
Full, 99% of the Moon is Illuminated
Mar 28
Full
Apr 3
Last Quarter
Apr 10
New
Apr 18
First Quarter
Apr 25
Full

Hourly Weather History & Observations

Time (CET) Temp. Windchill Dew Point Humidity Pressure Visibility Wind Dir Wind Speed Gust Speed Precip Events Conditions
12:00 AM 33.8 °F 23.2 °F 26.6 °F 75% 29.98 in 6.2 mi SE 17.3 mph - N/A   Mostly Cloudy
12:30 AM 33.8 °F 22.8 °F 26.6 °F 75% 29.98 in 6.2 mi SE 18.4 mph - N/A   Mostly Cloudy
1:00 AM 33.8 °F 23.2 °F 26.6 °F 75% 29.98 in 6.2 mi SE 17.3 mph - N/A   Mostly Cloudy
1:30 AM 33.8 °F 23.2 °F 26.6 °F 75% 29.98 in 6.2 mi SE 17.3 mph - N/A   Mostly Cloudy
2:00 AM 33.8 °F 23.2 °F 26.6 °F 75% 30.01 in 6.2 mi SE 17.3 mph - N/A   Mostly Cloudy
2:30 AM 33.8 °F 22.8 °F 26.6 °F 75% 30.01 in 6.2 mi SE 18.4 mph - N/A   Mostly Cloudy
3:00 AM 33.8 °F 22.5 °F 26.6 °F 75% 30.01 in 6.2 mi SE 19.6 mph - N/A   Mostly Cloudy
3:30 AM 33.8 °F 23.2 °F 26.6 °F 75% 30.01 in 6.2 mi SE 17.3 mph - N/A   Mostly Cloudy
4:00 AM 34 °F - 27 °F 67% 30.02 in 6 mi SE 17.9 mph - -   Mostly Cloudy
4:00 AM 33.8 °F 22.5 °F 26.6 °F 75% 30.01 in 6.2 mi SE 19.6 mph - N/A   Mostly Cloudy
4:30 AM 33.8 °F 23.2 °F 26.6 °F 75% 30.01 in 6.2 mi SE 17.3 mph - N/A   Mostly Cloudy
5:00 AM 33.8 °F 22.8 °F 26.6 °F 75% 30.01 in 6.2 mi SE 18.4 mph - N/A   Mostly Cloudy
5:30 AM 33.8 °F 24.3 °F 26.6 °F 75% 30.01 in 6.2 mi SE 13.8 mph - N/A   Mostly Cloudy
6:00 AM 33.8 °F 23.5 °F 26.6 °F 75% 30.01 in 6.2 mi SE 16.1 mph - N/A   Mostly Cloudy
6:30 AM 33.8 °F 23.9 °F 26.6 °F 75% 30.01 in 6.2 mi SE 15.0 mph - N/A   Mostly Cloudy
7:00 AM 33.8 °F 22.8 °F 26.6 °F 75% 30.01 in 6.2 mi SE 18.4 mph - N/A   Mostly Cloudy
7:30 AM 33.8 °F 23.2 °F 26.6 °F 75% 30.04 in 6.2 mi SE 17.3 mph - N/A   Mostly Cloudy
8:00 AM 35.6 °F 25.9 °F 26.6 °F 70% 30.04 in 6.2 mi SE 16.1 mph - N/A   Mostly Cloudy
8:30 AM 35.6 °F 26.2 °F 28.4 °F 75% 30.04 in 6.2 mi ESE 15.0 mph - N/A   Mostly Cloudy
9:00 AM 35.6 °F 28.0 °F 28.4 °F 75% 30.06 in 6.2 mi SE 10.4 mph - N/A   Mostly Cloudy
9:30 AM 37.4 °F 30.3 °F 28.4 °F 70% 30.06 in - SE 10.4 mph - N/A   Clear
10:00 AM 38 °F - 30 °F 62% 30.08 in 12 mi Calm Calm - -   Mostly Cloudy
10:00 AM 37.4 °F - 30.2 °F 75% 30.06 in - Variable 2.3 mph - N/A   Clear
10:30 AM 39.2 °F 35.9 °F 30.2 °F 70% 30.06 in - Variable 4.6 mph - N/A   Clear
11:00 AM 39.2 °F 32.5 °F 30.2 °F 70% 30.06 in 6.2 mi SSE 10.4 mph - N/A   Scattered Clouds
11:30 AM 41.0 °F 33.9 °F 32.0 °F 70% 30.06 in 6.2 mi SSE 12.7 mph - N/A   Scattered Clouds
12:00 PM 42.8 °F 36.2 °F 32.0 °F 66% 30.06 in 6.2 mi SSE 12.7 mph - N/A   Partly Cloudy
12:30 PM 44.6 °F 39.2 °F 33.8 °F 66% 30.06 in 6.2 mi SSE 10.4 mph - N/A   Scattered Clouds
1:00 PM 44.6 °F 39.2 °F 33.8 °F 66% 30.06 in 6.2 mi SE 10.4 mph - N/A   Scattered Clouds
1:30 PM 44.6 °F 40.2 °F 33.8 °F 66% 30.06 in 6.2 mi SSE 8.1 mph - N/A   Scattered Clouds
2:00 PM 46.4 °F 41.1 °F 33.8 °F 62% 30.04 in 6.2 mi SSE 11.5 mph - N/A   Scattered Clouds
2:30 PM 46.4 °F 40.7 °F 33.8 °F 62% 30.04 in 6.2 mi SSE 12.7 mph - N/A   Scattered Clouds
3:00 PM 46.4 °F 40.7 °F 35.6 °F 66% 30.04 in 6.2 mi SSE 12.7 mph - N/A   Partly Cloudy
3:30 PM 46.4 °F 40.1 °F 33.8 °F 62% 30.04 in 6.2 mi SSE 15.0 mph - N/A   Partly Cloudy
4:00 PM 45 °F - 35 °F 56% 30.04 in 12 mi SE 15.7 mph - -   Clear
4:00 PM 44.6 °F 37.4 °F 33.8 °F 66% 30.04 in - SE 16.1 mph - N/A   Clear
4:30 PM 44.6 °F 36.6 °F 33.8 °F 66% 30.04 in - SE 19.6 mph - N/A   Clear
5:00 PM 42.8 °F 37.0 °F 32.0 °F 66% 30.04 in - SE 10.4 mph - N/A   Clear
5:30 PM 42.8 °F 35.1 °F 32.0 °F 66% 30.04 in - SE 16.1 mph - N/A   Clear
6:00 PM 41.0 °F 34.3 °F 30.2 °F 65% 30.04 in - ESE 11.5 mph - N/A   Clear
6:30 PM 39.2 °F 31.2 °F 30.2 °F 70% 30.04 in - ESE 13.8 mph 25.3 mph N/A   Clear
7:30 PM 39.2 °F 29.0 °F 28.4 °F 65% 30.04 in - ESE 21.9 mph 35.7 mph N/A   Clear
8:00 PM 37.4 °F 26.1 °F 28.4 °F 70% 30.04 in - SE 24.2 mph 39.1 mph N/A   Clear
8:30 PM 37.4 °F 25.4 °F 28.4 °F 70% 30.04 in - SE 27.6 mph 41.4 mph N/A   Clear
9:00 PM 37.4 °F 25.6 °F 28.4 °F 70% 30.04 in - SE 26.5 mph 38.0 mph N/A   Clear
9:30 PM 37.4 °F 25.0 °F 28.4 °F 70% 30.04 in - SE 29.9 mph - N/A   Clear
10:00 PM 37 °F - 29 °F 62% 30.05 in 9 mi SE 26.8 mph - -   Scattered Clouds
10:00 PM 37.4 °F 25.4 °F 28.4 °F 70% 30.04 in - SE 27.6 mph 41.4 mph N/A   Clear
10:30 PM 37.4 °F 24.6 °F 28.4 °F 70% 30.01 in - SE 32.2 mph 44.9 mph N/A   Clear
11:00 PM 37.4 °F 24.0 °F 28.4 °F 70% 30.01 in - SE 35.7 mph 50.6 mph N/A   Clear
11:30 PM 37.4 °F 23.6 °F 28.4 °F 70% 29.98 in - SE 38.0 mph - N/A   Clear